1998-067TH

Last updated on Tue Feb 15 2022 00:02:05 GMT+0000 (Coordinated Universal Time)

1 51510U 98067TH 22045.20665345 .00066013 00000+0 10940-2 0 9997 2 51510 51.6419 225.5335 0009062 131.9559 228.2324 15.51489442 1743

Satellite not in orbit